Location: *
(48.8667°N, 2.3331°E)
Time: 16:48:02
(UTC+00:00)

CZ-4C R/B - Pass Details

Date: 09 April 2020
Orbit: 637 x 1365 km, 63.4° (Epoch: 02 June)

Event Time Altitude Azimuth Distance (km) Brightness Sun altitude
Rises 22:37:22 0° 316° (NW) 3,833 6.6 -30.8°
Reaches altitude 10° 22:39:54 10° 312° (NW) 2,975 5.7 -30.9°
Maximum altitude 22:46:54 55° 238° (WSW) 1,466 3.2 -31.3°
Enters shadow 22:47:01 55° 235° (SW) 1,468 3.2 -31.3°
